Weather History for Clinton, NC

Change the Weather History Date:

Friday, October 25, 2013

  Actual Average (KFAY) Record (KFAY)
Temperature  
Mean Temperature 46 °F 61 °F  
Max Temperature 57 °F 73 °F 90 °F (1931)
Min Temperature 35 °F 49 °F 29 °F (1962)
Degree Days  
Heating Degree Days 18 6  
Month to date heating degree days 80  
Since 1 July heating degree days 89  
Cooling Degree Days 0 1  
Month to date cooling degree days 64  
Year to date cooling degree days 1972  
Moisture  
Dew Point 35 °F    
Average Humidity 61    
Maximum Humidity 99    
Minimum Humidity 35    
Precipitation  
Precipitation 0.00 in 0.08 in 3.40 in (1913)
Month to date precipitation 2.81  
Year to date precipitation 38.64  
Sea Level Pressure  
Sea Level Pressure 30.28 in    
Wind  
Wind Speed 5 mph (North)    
Max Wind Speed 12 mph    
Max Gust Speed 17 mph    
Visibility 10 miles    
Events      
T = Trace of Precipitation, MM = Missing Value Source: NWS Daily Summary

Daily Weather History Graph

Daily Weather History Graph

Search for Another Location

Airport:

Trip Planner

Search our weather history database for the weather conditions in past years. The results will help you decide how hot, cold, wet, or windy it might be!

Date:

Astronomy

Oct. 25, 2013 Rise Set
Actual Time 7:28 AM EDT 6:26 PM EDT
Civil Twilight 7:02 AM EDT 6:52 PM EDT
Nautical Twilight 6:32 AM EDT 7:21 PM EDT
Astronomical Twilight 6:03 AM EDT 7:51 PM EDT
Moon 11:47 PM EDT (10/25) 1:03 PM EDT (10/25)
Length of Visible Light 11h 49m
Length of Day
10h 58m
Waning Gibbous, 62% of the Moon is Illuminated
Oct 25
Waning Gibbous
Oct 26
Last Quarter
Nov 3
New
Nov 10
First Quarter
Nov 17
Full

Hourly Weather History & Observations

Time (EDT) Temp. Windchill Dew Point Humidity Pressure Visibility Wind Dir Wind Speed Gust Speed Precip Events Conditions
12:15 AM 49.8 °F - 41.2 °F 72% 30.18 in 10.0 mi NNE 3.5 mph - N/A   Overcast
12:35 AM 50.2 °F - 39.9 °F 68% 30.18 in 10.0 mi NNE 5.8 mph - N/A   Overcast
12:55 AM 50.2 °F - 39.0 °F 66% 30.19 in 10.0 mi NE 4.6 mph - N/A   Overcast
1:15 AM 50.4 °F - 37.8 °F 62% 30.19 in 10.0 mi NNE 4.6 mph - N/A   Overcast
1:35 AM 50.0 °F - 37.0 °F 61% 30.18 in 10.0 mi NE 4.6 mph - N/A   Overcast
1:55 AM 50.0 °F - 37.4 °F 62% 30.19 in 10.0 mi NNE 3.5 mph - N/A   Overcast
2:15 AM 50.0 °F - 37.4 °F 62% 30.19 in 10.0 mi NNE 3.5 mph - N/A   Overcast
2:35 AM 49.6 °F - 37.0 °F 62% 30.19 in 10.0 mi NNE 4.6 mph - N/A   Overcast
2:55 AM 49.1 °F - 37.0 °F 63% 30.19 in 10.0 mi North 4.6 mph - N/A   Overcast
3:15 AM 48.9 °F - 37.2 °F 64% 30.19 in 10.0 mi NNE 5.8 mph - N/A   Overcast
3:35 AM 48.7 °F - 36.7 °F 63% 30.20 in 10.0 mi NE 4.6 mph - N/A   Overcast
3:55 AM 48.7 °F - 36.1 °F 62% 30.21 in 10.0 mi NNE 3.5 mph - N/A   Overcast
4:15 AM 48.4 °F - 36.3 °F 63% 30.20 in 10.0 mi NE 3.5 mph - N/A   Overcast
4:35 AM 48.2 °F - 36.9 °F 65% 30.21 in 10.0 mi NE 3.5 mph - N/A   Overcast
4:55 AM 48.2 °F - 37.4 °F 66% 30.22 in 10.0 mi North 3.5 mph - N/A   Overcast
5:15 AM 47.5 °F - 38.1 °F 70% 30.22 in 10.0 mi North 3.5 mph - N/A   Overcast
5:35 AM 47.3 °F - 37.8 °F 69% 30.22 in 10.0 mi NNE 6.9 mph - N/A   Overcast
5:55 AM 47.3 °F - 37.8 °F 69% 30.24 in 10.0 mi NNE 6.9 mph - N/A   Overcast
6:15 AM 46.9 °F - 37.4 °F 69% 30.25 in 10.0 mi North 5.8 mph - N/A   Overcast
6:35 AM 46.6 °F - 36.7 °F 68% 30.26 in 10.0 mi North 5.8 mph - N/A   Overcast
6:55 AM 46.4 °F 42.9 °F 37.4 °F 71% 30.26 in 10.0 mi North 6.9 mph - N/A   Light Drizzle
7:15 AM 46.2 °F 43.3 °F 36.7 °F 69% 30.26 in 10.0 mi North 5.8 mph - N/A   Overcast
7:35 AM 46.0 °F 43.1 °F 36.1 °F 68% 30.27 in 10.0 mi North 5.8 mph - N/A   Overcast
7:55 AM 45.5 °F 43.2 °F 36.1 °F 70% 30.27 in 10.0 mi NNE 4.6 mph - N/A   Mostly Cloudy
8:15 AM 45.5 °F 44.2 °F 36.1 °F 70% 30.28 in 10.0 mi North 3.5 mph - N/A   Mostly Cloudy
8:35 AM 45.3 °F - 36.3 °F 71% 30.29 in 10.0 mi Calm Calm - N/A   Mostly Cloudy
8:55 AM 45.3 °F 42.3 °F 36.3 °F 71% 30.30 in 10.0 mi North 5.8 mph - N/A   Mostly Cloudy
9:15 AM 45.9 °F 42.3 °F 35.8 °F 68% 30.31 in 10.0 mi North 6.9 mph - N/A   Mostly Cloudy
9:35 AM 47.7 °F - 35.1 °F 62% 30.32 in 10.0 mi North 8.1 mph - N/A   Scattered Clouds
9:55 AM 49.6 °F - 33.4 °F 54% 30.32 in 10.0 mi NNE 6.9 mph - N/A   Clear
10:15 AM 50.0 °F - 32.0 °F 50% 30.32 in 10.0 mi North 8.1 mph 16.1 mph N/A   Clear
10:35 AM 50.9 °F - 32.4 °F 49% 30.31 in 10.0 mi NE 5.8 mph - N/A   Scattered Clouds
10:55 AM 51.8 °F - 31.8 °F 47% 30.31 in 10.0 mi North 8.1 mph - N/A   Scattered Clouds
11:15 AM 52.9 °F - 32.2 °F 45% 30.31 in 10.0 mi North 9.2 mph - N/A   Scattered Clouds
11:35 AM 52.9 °F - 31.8 °F 45% 30.32 in 10.0 mi NNE 8.1 mph - N/A   Clear
11:55 AM 53.4 °F - 31.8 °F 44% 30.31 in 10.0 mi North 5.8 mph - N/A   Clear
12:15 PM 54.7 °F - 31.8 °F 42% 30.31 in 10.0 mi NNW 8.1 mph - N/A   Clear
12:35 PM 55.0 °F - 30.7 °F 40% 30.31 in 10.0 mi NNE 8.1 mph - N/A   Clear
12:55 PM 55.0 °F - 30.9 °F 40% 30.31 in 10.0 mi NW 9.2 mph - N/A   Clear
1:15 PM 55.9 °F - 30.6 °F 38% 30.30 in 10.0 mi NNW 10.4 mph 16.1 mph N/A   Clear
1:35 PM 55.9 °F - 30.6 °F 38% 30.30 in 10.0 mi North 6.9 mph - N/A   Clear
1:55 PM 56.5 °F - 30.6 °F 37% 30.30 in 10.0 mi North 8.1 mph - N/A   Clear
2:15 PM 57.2 °F - 30.2 °F 36% 30.29 in 10.0 mi NW 9.2 mph - N/A   Clear
2:35 PM 57.0 °F - 29.3 °F 35% 30.29 in 10.0 mi North 8.1 mph 16.1 mph N/A   Clear
2:55 PM 57.2 °F - 30.0 °F 36% 30.28 in 10.0 mi North 8.1 mph - N/A   Clear
3:15 PM 57.2 °F - 29.7 °F 35% 30.28 in 10.0 mi NNW 10.4 mph 17.3 mph N/A   Clear
3:35 PM 56.8 °F - 29.5 °F 35% 30.28 in 10.0 mi NW 11.5 mph - N/A   Clear
3:55 PM 57.2 °F - 30.4 °F 36% 30.28 in 10.0 mi NW 5.8 mph - N/A   Clear
4:15 PM 56.7 °F - 29.5 °F 35% 30.28 in 10.0 mi NW 4.6 mph - N/A   Clear
4:35 PM 57.0 °F - 30.6 °F 37% 30.28 in 10.0 mi NNW 5.8 mph - N/A   Clear
4:55 PM 56.5 °F - 30.0 °F 36% 30.29 in 10.0 mi NNW 5.8 mph - N/A   Clear
5:15 PM 55.9 °F - 29.7 °F 37% 30.29 in 10.0 mi North 5.8 mph - N/A   Clear
5:35 PM 55.6 °F - 30.4 °F 38% 30.30 in 10.0 mi North 5.8 mph - N/A   Clear
5:55 PM 54.7 °F - 30.7 °F 40% 30.31 in 10.0 mi North 3.5 mph - N/A   Clear
6:15 PM 53.2 °F - 32.0 °F 44% 30.31 in 10.0 mi Calm Calm - N/A   Clear
6:35 PM 49.5 °F - 34.5 °F 56% 30.31 in 10.0 mi Calm Calm - N/A   Clear
6:55 PM 47.5 °F - 35.2 °F 63% 30.32 in 10.0 mi Calm Calm - N/A   Clear
7:15 PM 46.4 °F - 36.1 °F 67% 30.32 in 10.0 mi Calm Calm - N/A   Clear
7:35 PM 44.4 °F - 36.7 °F 74% 30.33 in 10.0 mi Calm Calm - N/A   Clear
7:55 PM 43.3 °F - 36.7 °F 77% 30.33 in 10.0 mi Calm Calm - N/A   Clear
8:15 PM 43.0 °F - 36.7 °F 78% 30.34 in 10.0 mi Calm Calm - N/A   Clear
8:35 PM 42.1 °F - 36.5 °F 81% 30.33 in 10.0 mi Calm Calm - N/A   Clear
8:55 PM 40.6 °F - 37.2 °F 88% 30.34 in 10.0 mi Calm Calm - N/A   Clear
9:15 PM 40.3 °F - 36.0 °F 85% 30.34 in 10.0 mi Calm Calm - N/A   Clear
9:35 PM 40.1 °F - 36.1 °F 86% 30.35 in 10.0 mi Calm Calm - N/A   Clear
9:55 PM 38.7 °F - 36.3 °F 91% 30.36 in 10.0 mi Calm Calm - N/A   Clear
10:15 PM 37.9 °F - 35.8 °F 92% 30.36 in 10.0 mi Calm Calm - N/A   Clear
10:35 PM 37.8 °F - 36.5 °F 95% 30.36 in 10.0 mi Calm Calm - N/A   Clear
10:55 PM 37.4 °F - 36.5 °F 97% 30.37 in 10.0 mi Calm Calm - N/A   Clear
11:15 PM 36.7 °F - 35.8 °F 97% 30.37 in 10.0 mi Calm Calm - N/A   Clear
11:35 PM 36.3 °F - 35.6 °F 97% 30.37 in 10.0 mi Calm Calm - N/A   Clear
11:55 PM 35.8 °F - 35.6 °F 99% 30.37 in 10.0 mi Calm Calm - N/A   Clear